Flag for Germany Weather past 2 weeks in Giessen, Hesse, Germany

Now
46 °F

Low clouds.


Feels Like: 41 °F
Forecast: 40 / 51 °F
Wind: 9 mph from West

Location: Giessen

Current Time: Mar 30, 2015 at 2:15:38 AM

Latest Report: Mar 30, 2015 at 1:00 AM


Visibility: 25 mi

Pressure: 29.41 "Hg

Humidity: 82%

Dew point: 41 °F

Location of GiessenLocation

Historic Weather in Giessen — Graph

°F

Giessen temperature yesterday

Maximum temperature yesterday: 53 °F (at 8:00 PM)
Minimum temperature yesterday: 46 °F (at 11:00 PM)
Average temperature yesterday: 50 °F

Past Weeks' High & Low Weather Summary

 TemperatureHumidityPressure
High63 °F (Mar 18, 3:00 PM)100% (Mar 20, 7:00 AM)30.35 "Hg (Mar 20, 7:00 AM)
Low26 °F (Mar 23, 6:00 AM)35% (Mar 20, 5:00 PM)29.32 "Hg (Mar 29, 9:00 PM)
Average43 °F80%30.06 "Hg
* Reported Midnight between Mar 14 and Mar 15 — Mar 30 1:00 AM, Giessen, Weather by CustomWeather, © 2015

Note: Actual official high and low records may vary slightly from our data, if they occured in-between our weather recording intervals... More about our weather records

Advertising

Giessen weather history for previous 24 hours

 ConditionsComfort  
Time TempWeatherWind HumidityBarometerVisibility
1:00 AM
Mon, Mar 30
46 °FLow clouds.9 mph82%29.41 "Hg25 mi
12:00 AM47 °FOvercast.12 mph81%29.38 "Hg31 mi
11:00 PM
Sun, Mar 29
46 °FRain. Low clouds.13 mph85%29.38 "Hg12 mi
10:00 PM52 °FLow clouds.13 mph81%29.32 "Hg43 mi
9:00 PM51 °FRain. Low clouds.10 mph90%29.32 "Hg2 mi
8:00 PM53 °FLow clouds.14 mph84%29.35 "Hg43 mi
7:00 PM51 °FRain. Low clouds.13 mph92%29.35 "Hg15 mi
6:00 PM50 °FRain. Low clouds.9 mph93%29.41 "Hg5 mi
5:00 PM50 °FRain. Low clouds.9 mph92%29.44 "Hg4 mi
4:00 PM50 °FRain. Low clouds.10 mph91%29.50 "Hg8 mi
3:00 PM50 °FRain. Low clouds.10 mph91%29.57 "Hg9 mi
2:00 PM49 °FRain. Low clouds.8 mph91%29.62 "Hg9 mi
1:00 PM49 °FLight rain. Low clouds.9 mph87%29.65 "Hg12 mi
12:00 PM49 °FLight rain. Low clouds.12 mph82%29.68 "Hg12 mi
11:00 AM50 °FOvercast.13 mph76%29.70 "Hg28 mi
10:00 AM51 °FOvercast.13 mph71%29.71 "Hg34 mi
9:00 AM51 °FOvercast.10 mph76%29.72 "Hg43 mi
8:00 AM51 °FOvercast.9 mph80%29.74 "Hg37 mi
7:00 AM51 °FOvercast.9 mph82%29.74 "Hg34 mi
6:00 AM51 °FLight rain. Low clouds.8 mph88%29.75 "Hg19 mi
5:00 AM51 °FLow clouds.6 mph90%29.77 "Hg19 mi
4:00 AM50 °FOvercast.5 mph91%29.80 "Hg14 mi
3:00 AM49 °FOvercast.7 mph94%29.80 "Hg8 mi
Weather by CustomWeather, © 2015

See weather overviewHow to use our weather pages